www.pogodaiklimat.ru

Погода и климат >> Архив погоды >> Россия >> Красноярский край >> Минино


ПОГОДА в Минино

  • Прогноз погоды в Минино
  • Монитор погоды в Минино

АРХИВ ПОГОДЫ в Минино

Время (UTC), дата Ветер
(напр.,м/с)
 
Видим.   Явления Облачность Т
(С)
Тd
(С)
f
(%)
Тe
(С)
Тes
(С)
Комфортность P
(гПа)
Po
(гПа)
Тmin
(С)
Tmax
(С)
R
(мм)
R24
(мм)
S
(см)
12 13.05 СЗ 3 20 км {ливн. осадки} 9/6 600 м
[Cb cap Ci ing]
+6.0 -5.6 43 +4 +4 1011.6 983.0 +7.0 0.1
15 13.05 З 2 50 км 6/4 600 м
[Cb cap Ac lent]
+2.9 -3.3 64 0 0 1012.9 984.1
18 13.05 З 2 50 км 4/4 600 м
[Cb cap]
-1.1 -3.9 81 -5 -5 1013.9 984.6
21 13.05 штиль 0 50 км 3/0
[Ac lent]
-0.6 -2.1 90 -2 -2 1014.0 984.8
00 14.05 З 1 20 км {ливн. осадки} 6/3 600 м
[Cb cap Ci fib]
+1.7 -0.5 85 0 +2 1014.5 985.5 -2.5 0.2 <0.5
03 14.05 С 2 20 км слаб. ливневой снег 9/8 600 м
[Cb cap Ci fib]
+2.9 -0.9 76 0 +2 1014.5 985.6
06 14.05 СЗ 3
{11}
50 км {ливн. осадки} 9/8 600 м
[Cb cap Ci fib]
+6.3 -2.8 52 +4 +6 1013.6 985.0
09 14.05 З 3
{10}
50 км {ливн. осадки} 9/8 600 м
[Cb cap Ci fib]
+7.1 -3.6 46 +5 +6 1013.1 984.6
12 14.05 Ю 3 50 км в посл. час ливневой снег 9/6 600 м
[Cb cap Ci fib]
+3.3 +2.2 92 -1 -0 1013.8 985.0 +7.8 1
15 14.05 З 1 50 км 6/4 600 м
[Cb cap Ac trans]
+1.1 -0.1 92 -1 -1 1013.5 984.5
18 14.05 С 1 50 км 4/4 600 м
[Cu med, cong]
-2.4 -2.9 96 -5 -5 1012.7 983.3
21 14.05 штиль 0 50 км 4/4 600 м
[Cu med, cong]
-5.2 -5.6 97 -6 -6 1012.0 982.3
00 15.05 штиль 0 50 км 9/0 2000 м
[Ac trans Ci fib]
-2.8 -3.2 97 -4 -2 1011.2 981.7 -5.3
03 15.05 СЗ 1 50 км 9/4 600 м
[Cu med, cong Ci fib]
+6.3 +0.8 68 +6 +11 1009.8 981.4
06 15.05 С 3 50 км {ливн. осадки} 9/6 600 м
[Cb cap Ci fib]
+8.8 -1.7 48 +7 +11 1009.1 980.9
09 15.05 З 4 50 км 8/6 600 м
[Cb cap Ci fib]
+9.1 -3.9 40 +7 +9 1009.5 981.3
12 15.05 СВ 2 50 км 9/5 600 м
[Cb cap Ci fib]
+8.8 -3.9 40 +8 +8 1010.5 982.3 +9.8 0.0
15 15.05 СЗ 3
{10}
50 км 10/6 600 м
[Cb cap Cs]
+5.9 -1.4 59 +3 +3 1013.1 984.5
18 15.05 СЗ 3 50 км 8/3 600 м
[Cb cap Ac trans]
+3.6 -1.0 72 0 0 1014.8 986.0
21 15.05 З 1 50 км 8/3 600 м
[Cu med, cong Ac trans Ci fib]
+1.0 -1.5 83 -1 -1 1015.4 986.2
00 16.05 СЗ 2 50 км 8/0 2000 м
[Ac trans Ci fib]
+5.7 -1.5 60 +4 +5 1016.1 987.4 +0.9
03 16.05 З 3 50 км 9/4 600 м
[Cu med, cong Ac trans Ci fib]
+8.9 -3.4 42 +7 +10 1016.7 988.3
06 16.05 СЗ 2
{10}
50 км 9/5 600 м
[Cb cap Ac trans Ci fib]
+10.6 -4.1 35 +10 +14 1015.9 987.7
09 16.05 З 3
{10}
50 км 9/6 600 м
[Cb cap Ci fib]
+12.4 -3.0 34 +11 +14 1015.8 987.8
12 16.05 СЗ 4
{10}
50 км 8/6 600 м
[Cb cap Ci fib]
+9.9 -4.6 36 +8 +8 1017.0 988.7 +12.5
15 16.05 З 2 50 км 6/3 600 м
[Cu hum Ac lent Ci fib]
+4.8 -4.4 51 +3 +3 1018.8 989.9
18 16.05 штиль 0 50 км 9/4 600 м
[Cb cap Ac trans]
+3.4 -3.4 61 +3 +3 1019.0 990.0
21 16.05 Ю 1 50 км 9/0
[Ac lent Ci fib]
+0.9 -4.0 70 -1 -1 1019.7 990.4
00 17.05 штиль 0 50 км 9/0 2000 м
[Ac trans Ci fib]
+4.3 -2.5 61 +4 +5 1020.5 991.6 +0.6
03 17.05 СЗ 3 50 км 9/9 600 м
[Cb cap]
+10.4 -5.7 32 +9 +10 1019.8 991.5
06 17.05 С 5-10
{10}
50 км в посл. час ливневой снег 9/8 600 м
[Cb cap Ci fib]
+9.6 -2.7 42 +7 +8 1019.7 991.3
09 17.05 СЗ 3
{12}
50 км 10/10 600 м
[Cb cap]
+10.1 -3.7 38 +9 +9 1019.6 991.3
12 17.05 З 3 50 км {ливн. осадки} 9/8 600 м
[Cb cap Ci fib]
+10.9 -3.8 35 +10 +10 1019.9 991.6 +12.3 0.0
15 17.05 штиль 0 50 км 9/4 600 м
[Cb cap Ac trans Ci fib]
+6.1 -2.6 54 +6 +6 1021.7 992.9
18 17.05 Ю 1 50 км 9/4 600 м
[Cb cap Ac trans Ci fib]
+4.3 -2.0 64 +3 +3 1023.1 994.0
21 17.05 З 1 50 км 9/0
[Ac trans Ci fib]
+0.8 -2.8 77 -1 -1 1023.0 993.6
00 18.05 ЮЗ 3 50 км 5/0
[Ac trans Ci fib]
+6.4 -1.2 58 +4 +5 1023.0 994.2 -0.6
03 18.05 Ю 3 50 км 9/4 600 м
[Cu med, cong Ac trans Ci sp]
+11.2 -1.6 41 +10 +13 1022.1 993.8
06 18.05 ЮЗ 5 50 км {ливн. осадки} 9/8 600 м
[Cb cap Ac trans Ci sp]
+12.5 -3.3 33 +11 +12 1020.2 992.1
09 18.05 З 4 50 км 9/8 600 м
[Cb cap Ac trans Ci sp]
+13.7 -3.1 31 +13 +13 1017.9 989.9
12 18.05 ЮЗ 2 50 км 10/6 600 м
[Cb cap As trans]
+12.9 -3.0 33 +13 +13 1017.2 989.2 +14.6 0.0
15 18.05 ЮЗ 1 50 км 10/3 600 м
[Cb cap As trans]
+8.4 -3.8 42 +8 +8 1016.4 988.0
18 18.05 штиль 0 50 км 10/0
[Ac trans Cs]
+3.4 -3.2 62 +3 +3 1016.1 987.2
21 18.05 штиль 0 50 км 10/0
[Ac trans Cs]
+0.5 -3.4 75 -0 -0 1015.6 986.3
00 19.05 В 1 50 км 10/0 2000 м
[Ac As]
+5.1 -1.2 64 +4 +5 1014.3 985.6 -0.0
03 19.05 В 1 20 км 9/0
[Ci fib]
+13.9 -0.2 38 +15 +24 1011.7 983.9
06 19.05 ЮЗ 4 50 км 10/0
[Cs]
+20.7 -1.5 22 +21 +29 комфорт 1008.6 981.6
09 19.05 Ю 2 50 км 10/0
[Ac lent Cs]
+22.5 -0.3 22 +22 +26 комфорт 1006.4 979.5
12 19.05 ЮЗ 5-10
{10}
50 км 9/0 2000 м
[Ac lent Ci fib]
+23.0 -0.3 21 +22 +22 комфорт 1005.1 978.4 +23.6
15 19.05 ЮЗ 1 50 км 4/0
[Ac lent]
+15.9 -1.7 30 +17 +17 1005.1 977.3
18 19.05 ЮЗ 2 50 км 6/0
[Ac lent]
+16.8 +1.1 35 +17 +17 1005.5 978.2
21 19.05 З 2 50 км 3/0
[Ac lent]
+14.3 +1.0 40 +14 +14 1005.0 977.5
00 20.05 З 1 50 км 8/5 600 м
[Cb cap Ac lent]
+17.2 +3.6 40 +18 +19 1005.5 978.3 +13.9
03 20.05 ЮЗ 1 50 км в посл. час ливневой дождь 9/4 600 м
[Cb cap Ac lent]
+14.7 +9.3 70 +15 +18 1006.6 979.2 +13.5
06 20.05 З 4 50 км {ливн. осадки} 9/6 600 м
[Cb cap Ac trans Ci fib]
+19.7 +10.3 55 +21 +23 комфорт 1004.7 977.8
09 20.05 ЮЗ 6-10
{13}
50 км 8/5 600 м
[Cb cap Ac trans Ci sp]
+21.9 +8.4 42 +23 +24 комфорт 1003.5 976.8

 

Местоположение метеостанции Минино (Красноярский край, Россия): широта 56.07 долгота 92.73 высота над уровнем моря 235 м.

В архиве по умолчанию представлена погода в Минино за последнюю неделю. Архивные данные за месяц целиком и за предыдущие месяцы, начиная с января 2011 года, Вы можете получить, выбрав интересующий диапазон дат из раскрывающегося списка и нажав кнопку "Ввод!".


*Определитесь, кто Вы:
робот инопланетянин человек

Внимание! Время в таблицах - всемирное. Для получения местного времени необходимо прибавить поправку, которая равна 7 ч.

Смотрите также архив погоды в соседних городах и на ближайших метеорологических станциях:

Погода в Красноярске (Красноярский край, Россия) (5 км)
Погода в Роевом Ручье (Красноярский край, Россия) (11 км)
Погода в Емельяново (Красноярский край, Россия) (19 км)
Погода в Шумихе (Красноярский край, Россия) (30 км)
Погода в Каче (Красноярский край, Россия) (33 км)
Погода в Погорельском Бору (Красноярский край, Россия) (36 км)
Погода в Железногорске (Красноярский край, Россия) (53 км)
Погода в Сухобузимском (Красноярский край, Россия) (59 км)
Погода в Кемчуге (Красноярский край, Россия) (66 км)
Погода в Шалинском (Красноярский край, Россия) (75 км)

Пояснения к столбцам:

Ветер - указаны скорость ветра в м/с - средняя за 10 мин, порывы в срок и между сроками (в фигурных скобках) и направление, откуда дует ветер: С - северный, СВ - северо-восточный, В - восточный, ЮВ - юго-восточный, Ю - южный, ЮЗ - юго-западный, З - западный, СЗ - северо-западный.
Видимость - горизонтальная дальность видимости в метрах или километрах. При видимости от 1 до 10 км при отсутствии осадков обычно наблюдается дымка, при ухудшении видимости до 1 км и менее - туман. В сухую погоду видимость может ухудшаться дымом, пылью или мглою.
Явления - указаны атмосферные явления, наблюдавшиеся в срок или в последний час перед сроком; фигурными скобками обозначены явления, наблюдавшиеся между сроками (за 1-3 часа до срока); квадратными скобками обозначены град или гололедные отложения с указанием их диаметра в мм.
Облачность - указаны через наклонную черту общая и нижняя облачность в баллах и высота нижней границы облаков в метрах; квадратными скобками обозначены формы облаков: Ci - перистые, Cs - перисто-слоистые, Cc - перисто-кучевые, Ac - высококучевые, As - высокослоистые, Sc - слоисто-кучевые, Ns - слоисто-дождевые, Cu - кучевые, Cb - кучево-дождевые. Подробнее классификацию облаков см. в Атласе облаков (PDF).
T - Температура воздуха - температура, измеренная на высоте 2 м над землей.
Td - Температура точки росы - температура, при понижении до которой содержащийся в воздухе водяной пар достигнет насыщения.
f - Относительная влажность воздуха - влажноcть воздуха, измеренная на высоте 2 м над землей.
Te - Эффективная температура - температура, которую ощущает одетый по сезону человек в тени. Характеристика душности погоды. При расчете учитывается влияние влажности воздуха и скорости ветра на теплоощущения человека.
Tes - Эффективная температура на солнце - температура, которую ощущает человек, с поправкой на солнечный нагрев. Характеристика знойности погоды. Зависит от высоты солнца над горизонтом, облачности и скорости ветра. Ночью, в пасмурную погоду, а также при ветре 12 м/с и более поправка равна нулю.
P - Атмосферное давление - приведенное к уровню моря атмосферное давление.
Po - Атмосферное давление - измеренное на уровне метеостанции атмосферное давление.
Tmin - Минимальная температура - минимум температуры воздуха на высоте 2 м над землей.
Tmax - Максимальная температура - максимум температуры воздуха на высоте 2 м над землей.
R - Количество осадков - Количество выпавших осадков за период времени, мм. При наведении курсора мыши на число - период времени, за который выпало указанное количество осадков.
R24 - Количество осадков - Количество выпавших осадков за 24 часа, мм.
S - Снежный покров - Высота снежного покрова, см. При наведении курсора мыши на число - состояние снежного покрова и степень покрытия местности в баллах.